STARLINK-1825 (46722 NORAD) Tracking and Keplerian Element Data

This shows tracking and keplerian element data for the satellite.

Feedback or suggestion? Click here.




ElementValue
Catalog46722
NameSTARLINK-1825
Epoch Orbit179
Epoch Day336.91667824
Epoch Year2020
RAAN253.2642
Inclination53.0541
Eccentricity0.0001279
Argument of Perigee72.0233
Mean Anonmoly227.4946
Mean Motion15.23505483
Decay Rate-0.01059625
L11 46722U 20073BE 20336.91667824 -.01059625 00000-0 -47829-1 0 9991
L22 46722 53.0541 253.2642 0001279 72.0233 227.4946 15.23505483 1798

Live tracking and technical data element details for STARLINK-1825 (NORAD 46722). STARLINK-1825 can be tracked NOW for your location showing map with azimuth and elevation plus other details from your city location.

Track the satellite on the map from your city or location and see movement details for azimuth, elevation, latitude, longitude, range, height, and movement on the map or in text.







IsCatalogInMostPopularTable: catalog: 46722, numindb: 9
Update: records affected: 1



GetName: 46722 STARLINK-1825

Hit Count: updated at: Thu, 03 Dec 2020 07:56:22 GMT